Time,TemperatureF,DewpointF,PressureIn,WindDirection,WindDirectionDegrees,WindSpeedMPH,WindSpeedGustMPH,Humidity,HourlyPrecipIn,Conditions,Clouds,dailyrainin,SoftwareType,DateUTC
2013-02-11 00:14:00,37.3,36.0,30.11,NW,319,0.0,1.0,96,0.00,,,0.00,weatherlink.com 1.10,2013-02-11 08:14:00,
2013-02-11 00:30:00,37.4,37.0,30.10,North,11,3.0,8.0,97,0.00,,,0.00,weatherlink.com 1.10,2013-02-11 08:30:00,
2013-02-11 00:45:00,37.0,36.0,30.11,NNE,19,0.0,6.0,97,0.00,,,0.00,weatherlink.com 1.10,2013-02-11 08:45:00,
2013-02-11 01:00:00,36.8,36.0,30.11,WSW,244,0.0,5.0,97,0.00,,,0.00,weatherlink.com 1.10,2013-02-11 09:00:00,
2013-02-11 01:15:00,36.5,36.0,30.11,North,355,0.0,1.0,97,0.00,,,0.00,weatherlink.com 1.10,2013-02-11 09:15:00,
2013-02-11 01:30:00,36.4,36.0,30.11,NNW,348,0.0,7.0,97,0.00,,,0.00,weatherlink.com 1.10,2013-02-11 09:30:00,
2013-02-11 01:45:00,36.3,36.0,30.11,NNE,26,0.0,7.0,97,0.00,,,0.00,weatherlink.com 1.10,2013-02-11 09:45:00,
2013-02-11 02:00:00,36.4,36.0,30.12,NNE,19,6.0,9.0,97,0.00,,,0.00,weatherlink.com 1.10,2013-02-11 10:00:00,
2013-02-11 02:15:00,36.6,36.0,30.11,North,9,0.0,10.0,97,0.00,,,0.00,weatherlink.com 1.10,2013-02-11 10:15:00,
2013-02-11 02:30:00,36.2,36.0,30.12,North,360,0.0,9.0,97,0.00,,,0.00,weatherlink.com 1.10,2013-02-11 10:30:00,
2013-02-11 02:45:00,35.6,35.0,30.11,North,360,0.0,8.0,97,0.00,,,0.00,weatherlink.com 1.10,2013-02-11 10:45:00,
2013-02-11 03:00:00,36.0,35.0,30.11,East,85,0.0,9.0,97,0.00,,,0.00,weatherlink.com 1.10,2013-02-11 11:00:00,
2013-02-11 03:15:00,35.7,35.0,30.11,North,360,6.0,7.0,97,0.00,,,0.00,weatherlink.com 1.10,2013-02-11 11:15:00,
2013-02-11 03:30:00,35.7,35.0,30.11,NNE,22,8.0,8.0,97,0.00,,,0.00,weatherlink.com 1.10,2013-02-11 11:30:00,
2013-02-11 03:45:00,35.4,35.0,30.11,NNE,28,0.0,9.0,97,0.00,,,0.00,weatherlink.com 1.10,2013-02-11 11:45:00,
2013-02-11 04:00:00,35.2,35.0,30.11,NE,46,0.0,7.0,97,0.00,,,0.00,weatherlink.com 1.10,2013-02-11 12:00:00,
2013-02-11 04:15:00,35.1,34.0,30.12,NE,43,0.0,9.0,97,0.00,,,0.00,weatherlink.com 1.10,2013-02-11 12:15:00,
2013-02-11 04:30:00,35.2,35.0,30.13,NNE,33,0.0,9.0,97,0.00,,,0.00,weatherlink.com 1.10,2013-02-11 12:30:00,
2013-02-11 04:45:00,34.6,34.0,30.13,NNE,20,0.0,8.0,97,0.00,,,0.00,weatherlink.com 1.10,2013-02-11 12:45:00,
2013-02-11 05:00:00,34.3,34.0,30.13,North,360,0.0,4.0,97,0.00,,,0.00,weatherlink.com 1.10,2013-02-11 13:00:00,
2013-02-11 05:15:00,34.3,34.0,30.14,NNE,22,3.0,5.0,97,0.00,,,0.00,weatherlink.com 1.10,2013-02-11 13:15:00,
2013-02-11 05:30:00,33.8,33.0,30.14,NNE,16,0.0,5.0,97,0.00,,,0.00,weatherlink.com 1.10,2013-02-11 13:30:00,
2013-02-11 05:45:00,34.2,34.0,30.14,NE,39,0.0,10.0,97,0.00,,,0.00,weatherlink.com 1.10,2013-02-11 13:45:00,
2013-02-11 06:00:00,33.8,33.0,30.14,NNE,15,0.0,10.0,97,0.00,,,0.00,weatherlink.com 1.10,2013-02-11 14:00:00,
2013-02-11 06:15:00,33.4,33.0,30.14,NNW,344,0.0,7.0,97,0.00,,,0.00,weatherlink.com 1.10,2013-02-11 14:15:00,
2013-02-11 06:30:00,33.5,33.0,30.15,NE,34,0.0,5.0,97,0.00,,,0.00,weatherlink.com 1.10,2013-02-11 14:30:00,
2013-02-11 06:45:00,33.9,33.0,30.16,NNE,15,4.0,8.0,97,0.00,,,0.00,weatherlink.com 1.10,2013-02-11 14:45:00,
2013-02-11 07:00:00,33.9,33.0,30.16,North,11,7.0,10.0,97,0.00,,,0.00,weatherlink.com 1.10,2013-02-11 15:00:00,
2013-02-11 07:15:00,33.5,33.0,30.16,NNE,20,0.0,8.0,97,0.00,,,0.00,weatherlink.com 1.10,2013-02-11 15:15:00,
2013-02-11 07:30:00,33.3,33.0,30.17,NE,39,1.0,8.0,97,0.00,,,0.00,weatherlink.com 1.10,2013-02-11 15:30:00,
2013-02-11 07:46:00,33.5,33.0,30.18,North,355,1.0,8.0,97,0.00,,,0.00,weatherlink.com 1.10,2013-02-11 15:46:00,
2013-02-11 08:01:00,33.4,33.0,30.19,NNE,17,5.0,7.0,97,0.00,,,0.00,weatherlink.com 1.10,2013-02-11 16:01:00,
2013-02-11 08:16:00,33.8,33.0,30.19,NNE,13,0.0,7.0,97,0.00,,,0.00,weatherlink.com 1.10,2013-02-11 16:16:00,
2013-02-11 08:31:00,33.7,33.0,30.20,NNE,22,3.0,5.0,97,0.00,,,0.00,weatherlink.com 1.10,2013-02-11 16:31:00,
2013-02-11 08:46:00,34.1,33.0,30.20,North,350,0.0,7.0,97,0.00,,,0.00,weatherlink.com 1.10,2013-02-11 16:46:00,
2013-02-11 09:01:00,34.5,34.0,30.20,NNE,25,0.0,1.0,97,0.00,,,0.00,weatherlink.com 1.10,2013-02-11 17:01:00,
2013-02-11 09:16:00,36.3,36.0,30.20,East,101,0.0,0.0,98,0.00,,,0.00,weatherlink.com 1.10,2013-02-11 17:16:00,
2013-02-11 09:31:00,37.7,37.0,30.20,South,186,0.0,0.0,97,0.00,,,0.00,weatherlink.com 1.10,2013-02-11 17:31:00,
2013-02-11 09:46:00,38.8,38.0,30.19,South,186,0.0,0.0,97,0.00,,,0.00,weatherlink.com 1.10,2013-02-11 17:46:00,
2013-02-11 10:01:00,40.1,39.0,30.20,South,186,0.0,0.0,97,0.00,,,0.00,weatherlink.com 1.10,2013-02-11 18:01:00,
2013-02-11 10:16:00,41.8,41.0,30.20,South,186,0.0,0.0,97,0.00,,,0.00,weatherlink.com 1.10,2013-02-11 18:16:00,
2013-02-11 10:31:00,43.1,42.0,30.20,South,186,0.0,0.0,96,0.00,,,0.00,weatherlink.com 1.10,2013-02-11 18:31:00,
2013-02-11 10:46:00,44.2,43.0,30.20,South,186,0.0,0.0,95,0.00,,,0.00,weatherlink.com 1.10,2013-02-11 18:46:00,
2013-02-11 11:01:00,46.3,45.0,30.20,South,186,0.0,0.0,95,0.00,,,0.00,weatherlink.com 1.10,2013-02-11 19:01:00,
2013-02-11 11:16:00,49.0,46.0,30.19,SE,136,0.0,2.0,89,0.00,,,0.00,weatherlink.com 1.10,2013-02-11 19:16:00,
2013-02-11 11:31:00,51.5,47.0,30.20,SE,145,0.0,7.0,84,0.00,,,0.00,weatherlink.com 1.10,2013-02-11 19:31:00,
2013-02-11 11:46:00,52.2,47.0,30.19,SSE,163,0.0,5.0,82,0.00,,,0.00,weatherlink.com 1.10,2013-02-11 19:46:00,
2013-02-11 12:01:00,53.3,47.0,30.18,WSW,244,0.0,4.0,79,0.00,,,0.00,weatherlink.com 1.10,2013-02-11 20:01:00,
2013-02-11 12:16:00,52.6,47.0,30.18,South,170,0.0,4.0,81,0.00,,,0.00,weatherlink.com 1.10,2013-02-11 20:16:00,
2013-02-11 12:31:00,52.2,46.0,30.18,SE,146,0.0,7.0,79,0.00,,,0.00,weatherlink.com 1.10,2013-02-11 20:31:00,
2013-02-11 12:46:00,51.7,46.0,30.18,West,281,1.0,13.0,82,0.00,,,0.00,weatherlink.com 1.10,2013-02-11 20:46:00,
2013-02-11 13:01:00,51.8,47.0,30.18,South,190,5.0,9.0,84,0.00,,,0.00,weatherlink.com 1.10,2013-02-11 21:01:00,
2013-02-11 13:16:00,51.7,47.0,30.18,South,172,6.0,7.0,85,0.00,,,0.00,weatherlink.com 1.10,2013-02-11 21:16:00,
2013-02-11 13:31:00,51.9,48.0,30.18,SE,146,3.0,6.0,85,0.00,,,0.00,weatherlink.com 1.10,2013-02-11 21:31:00,
2013-02-11 13:46:00,51.7,47.0,30.18,South,182,2.0,8.0,84,0.00,,,0.00,weatherlink.com 1.10,2013-02-11 21:46:00,
2013-02-11 14:01:00,51.6,48.0,30.17,WSW,248,0.0,10.0,86,0.00,,,0.00,weatherlink.com 1.10,2013-02-11 22:01:00,
2013-02-11 14:16:00,51.2,48.0,30.17,South,178,6.0,12.0,87,0.00,,,0.00,weatherlink.com 1.10,2013-02-11 22:16:00,
2013-02-11 14:31:00,50.8,47.0,30.17,South,177,2.0,8.0,87,0.00,,,0.00,weatherlink.com 1.10,2013-02-11 22:31:00,
2013-02-11 14:46:00,50.7,47.0,30.17,SSW,210,7.0,8.0,88,0.00,,,0.00,weatherlink.com 1.10,2013-02-11 22:46:00,
2013-02-11 15:01:00,50.6,47.0,30.17,SW,224,0.0,13.0,88,0.00,,,0.00,weatherlink.com 1.10,2013-02-11 23:01:00,
2013-02-11 15:16:00,50.7,47.0,30.17,SSE,167,0.0,7.0,87,0.00,,,0.00,weatherlink.com 1.10,2013-02-11 23:16:00,
2013-02-11 15:31:00,50.7,47.0,30.17,ESE,113,0.0,4.0,88,0.00,,,0.00,weatherlink.com 1.10,2013-02-11 23:31:00,
2013-02-11 15:46:00,50.3,47.0,30.18,SW,216,0.0,7.0,88,0.00,,,0.00,weatherlink.com 1.10,2013-02-11 23:46:00,
2013-02-11 16:01:00,50.3,47.0,30.18,SSW,200,3.0,4.0,89,0.00,,,0.00,weatherlink.com 1.10,2013-02-12 00:01:00,
2013-02-11 16:16:00,50.2,47.0,30.17,SSW,209,0.0,4.0,90,0.00,,,0.00,weatherlink.com 1.10,2013-02-12 00:16:00,
2013-02-11 16:31:00,50.1,47.0,30.17,West,265,0.0,6.0,90,0.00,,,0.00,weatherlink.com 1.10,2013-02-12 00:31:00,
2013-02-11 16:46:00,49.8,47.0,30.18,SSW,202,2.0,5.0,90,0.00,,,0.00,weatherlink.com 1.10,2013-02-12 00:46:00,
2013-02-11 17:01:00,49.6,47.0,30.18,SSW,199,0.0,5.0,91,0.00,,,0.00,weatherlink.com 1.10,2013-02-12 01:01:00,
2013-02-11 17:16:00,49.3,47.0,30.18,SW,236,0.0,1.0,91,0.00,,,0.00,weatherlink.com 1.10,2013-02-12 01:16:00,
2013-02-11 17:31:00,48.4,46.0,30.18,SW,234,0.0,0.0,90,0.00,,,0.00,weatherlink.com 1.10,2013-02-12 01:31:00,
2013-02-11 17:46:00,46.8,45.0,30.18,SW,234,0.0,0.0,92,0.00,,,0.00,weatherlink.com 1.10,2013-02-12 01:46:00,
2013-02-11 18:01:00,45.8,44.0,30.18,SW,234,0.0,0.0,94,0.00,,,0.00,weatherlink.com 1.10,2013-02-12 02:01:00,
2013-02-11 18:16:00,45.0,43.0,30.19,SW,234,0.0,0.0,94,0.00,,,0.00,weatherlink.com 1.10,2013-02-12 02:16:00,
2013-02-11 18:31:00,44.4,43.0,30.19,SW,234,0.0,0.0,95,0.00,,,0.00,weatherlink.com 1.10,2013-02-12 02:31:00,
2013-02-11 18:46:00,43.9,43.0,30.20,SW,234,0.0,0.0,95,0.00,,,0.00,weatherlink.com 1.10,2013-02-12 02:46:00,
2013-02-11 19:02:00,43.6,43.0,30.20,SW,234,0.0,0.0,96,0.00,,,0.00,weatherlink.com 1.10,2013-02-12 03:02:00,
2013-02-11 19:17:00,43.2,42.0,30.20,SW,234,0.0,0.0,96,0.00,,,0.00,weatherlink.com 1.10,2013-02-12 03:17:00,
2013-02-11 19:32:00,42.6,42.0,30.20,SW,234,0.0,0.0,96,0.00,,,0.00,weatherlink.com 1.10,2013-02-12 03:32:00,
2013-02-11 19:47:00,42.1,41.0,30.20,SW,234,0.0,0.0,96,0.00,,,0.00,weatherlink.com 1.10,2013-02-12 03:47:00,
2013-02-11 20:02:00,41.8,41.0,30.19,SW,234,0.0,0.0,96,0.00,,,0.00,weatherlink.com 1.10,2013-02-12 04:02:00,
2013-02-11 20:17:00,41.4,40.0,30.20,SW,234,0.0,0.0,96,0.00,,,0.00,weatherlink.com 1.10,2013-02-12 04:17:00,
2013-02-11 20:32:00,41.1,40.0,30.20,SSW,210,0.0,0.0,97,0.00,,,0.00,weatherlink.com 1.10,2013-02-12 04:32:00,
2013-02-11 20:47:00,40.9,40.0,30.21,SSW,207,0.0,0.0,96,0.00,,,0.00,weatherlink.com 1.10,2013-02-12 04:47:00,
2013-02-11 21:02:00,40.5,40.0,30.21,SSW,207,0.0,0.0,96,0.00,,,0.00,weatherlink.com 1.10,2013-02-12 05:02:00,
2013-02-11 21:17:00,40.3,40.0,30.21,SSW,207,0.0,0.0,97,0.00,,,0.00,weatherlink.com 1.10,2013-02-12 05:17:00,
2013-02-11 21:32:00,40.0,39.0,30.21,West,278,0.0,0.0,97,0.00,,,0.00,weatherlink.com 1.10,2013-02-12 05:32:00,
2013-02-11 21:47:00,39.7,39.0,30.21,West,279,0.0,0.0,97,0.00,,,0.00,weatherlink.com 1.10,2013-02-12 05:47:00,
2013-02-11 22:02:00,39.7,39.0,30.21,NW,319,0.0,0.0,97,0.00,,,0.00,weatherlink.com 1.10,2013-02-12 06:02:00,
2013-02-11 22:17:00,39.4,39.0,30.22,WSW,246,0.0,0.0,97,0.00,,,0.00,weatherlink.com 1.10,2013-02-12 06:17:00,
2013-02-11 22:32:00,39.7,39.0,30.22,North,355,0.0,5.0,97,0.00,,,0.00,weatherlink.com 1.10,2013-02-12 06:32:00,
2013-02-11 22:47:00,39.1,38.0,30.22,North,351,0.0,0.0,97,0.00,,,0.00,weatherlink.com 1.10,2013-02-12 06:47:00,
2013-02-11 23:02:00,38.9,38.0,30.22,North,350,0.0,1.0,97,0.00,,,0.00,weatherlink.com 1.10,2013-02-12 07:02:00,
2013-02-11 23:17:00,39.5,39.0,30.22,NNE,19,0.0,7.0,97,0.00,,,0.00,weatherlink.com 1.10,2013-02-12 07:17:00,
2013-02-11 23:32:00,38.7,38.0,30.22,NNE,23,0.0,5.0,97,0.00,,,0.00,weatherlink.com 1.10,2013-02-12 07:32:00,
2013-02-11 23:47:00,38.6,38.0,30.23,North,360,0.0,4.0,97,0.00,,,0.00,weatherlink.com 1.10,2013-02-12 07:47:00,